This is the latest recevied weather packets stored in our database for station/object VA3BOO. If no packets are shown the sender has not sent any weather packets the latest 10 day(s).
| Time | Temp. | Humidity | Pressure | Rain* | Wind** | Luminosity | Snow |
|---|---|---|---|---|---|---|---|
| 1777770004 | 6.11° C | 77% | 1013.2 hPa | 0 mm | - | 0 W/m² | - |
| 1777769704 | 6.11° C | 77% | 1013.1 hPa | 0 mm | - | 0 W/m² | - |
| 1777769404 | 6.11° C | 78% | 1013.1 hPa | 0 mm | - | 0 W/m² | - |
| 1777769104 | 6.11° C | 78% | 1012.9 hPa | 0 mm | - | 0 W/m² | - |
| 1777768804 | 6.11° C | 78% | 1013.2 hPa | 0 mm | - | 0 W/m² | - |
| 1777768504 | 6.11° C | 79% | 1012.9 hPa | 0 mm | - | 0 W/m² | - |
| 1777768204 | 6.11° C | 79% | 1012.7 hPa | 0 mm | - | 0 W/m² | - |
| 1777767904 | 6.11° C | 80% | 1012.8 hPa | 0 mm | - | 0 W/m² | - |
| 1777767604 | 5.56° C | 80% | 1012.7 hPa | 0 mm | - | 0 W/m² | - |
| 1777767304 | 6.11° C | 81% | 1012.9 hPa | 0 mm | - | 1 W/m² | - |
| 1777767004 | 6.11° C | 81% | 1012.7 hPa | 0 mm | - | 2 W/m² | - |
| 1777766704 | 6.11° C | 82% | 1012.7 hPa | 0 mm | - | 3 W/m² | - |
| 1777766404 | 6.11° C | 83% | 1012.6 hPa | 0 mm | - | 5 W/m² | - |
| 1777766104 | 6.11° C | 83% | 1012.7 hPa | 0 mm | - | 7 W/m² | - |
| 1777765804 | 6.11° C | 82% | 1012.7 hPa | 0 mm | - | 9 W/m² | - |
| 1777765504 | 6.11° C | 81% | 1012.7 hPa | 0 mm | - | 12 W/m² | - |
| 1777765204 | 6.11° C | 81% | 1012.9 hPa | 0 mm | - | 14 W/m² | - |
| 1777764904 | 6.11° C | 80% | 1012.8 hPa | 0 mm | - | 15 W/m² | - |
| 1777764604 | 6.11° C | 80% | 1012.6 hPa | 0 mm | - | 18 W/m² | - |
| 1777764304 | 6.67° C | 79% | 1012.8 hPa | 0 mm | - | 23 W/m² | - |
| 1777764004 | 6.67° C | 79% | 1012.8 hPa | 0 mm | - | 27 W/m² | - |
| 1777763704 | 6.67° C | 81% | 1012.8 hPa | 0 mm | - | 30 W/m² | - |
| 1777763404 | 6.67° C | 81% | 1012.6 hPa | 0 mm | - | 33 W/m² | - |
| 1777763104 | 6.67° C | 81% | 1012.7 hPa | 0 mm | - | 35 W/m² | - |
| 1777762804 | 6.67° C | 80% | 1012.6 hPa | 0 mm | - | 36 W/m² | - |
* Rain latest hour (hover to see other rain measurements)
** Current wind speed in m/s (hover to see current wind gust speed)